Regional Weather Roundup
Issued by NWS

Home | Current Version | Previous Version | Graphics & Text | Print | Product List | Glossary On
Versions: 1 2 3 4 5 6 7 8 9 10 11 12 13 14 15 16 17 18 19 20 21 22 23 24 25 26 27 28 29 30 31 32 33 34 35 36 37 38 39 40 41 42 43 44 45 46 47 48 49 50
679
ASUS43 KMPX 051901
RWRMN
WEATHER ROUNDUP FOR MINNESOTA
NATIONAL WEATHER SERVICE TWIN CITIES/CHANHASSEN MN
200 PM CDT THU MAY 05 2016


NOTE: "FAIR" INDICATES FEW OR NO CLOUDS BELOW 12,000 FEET WITH NO
SIGNIFICANT WEATHER AND/OR OBSTRUCTIONS TO VISIBILITY. N/A MEANS
CURRENT SKY AND/OR WEATHER CONDITIONS ARE NOT AVAILABLE.

MNZ060>063-068>070-052000-
   Twin Cities Metro

CITY           SKY/WX    TMP DP  RH WIND       PRES   REMARKS
TWIN CITIES    MOSUNNY   70  34  26 SW8       29.99F
ST PAUL        MOSUNNY   66  37  34 VRB7      30.00F
CRYSTAL        SUNNY     72  30  21 W13       29.98F
BLAINE         MOSUNNY   72  34  25 SW9       29.99F
EDEN PRAIRIE   SUNNY     71  31  22 MISG      29.99F
SOUTH ST PAUL  MOSUNNY   66  36  33 S3        30.00F
LAKE ELMO      FAIR      66  37  34 SW9       30.02S
$$
MNZ001>005-007-008-013>017-022>024-027-028-052000-
   Northwest Minnesota

CITY           SKY/WX    TMP DP  RH WIND       PRES   REMARKS
BEMIDJI        SUNNY     82  42  24 W12G26    29.85S
HALLOCK        SUNNY     91  27   9 W17G30    29.71F
ROSEAU         SUNNY     90  43  19 SW16G23   29.73F
WARROAD        SUNNY     86  54  32 SW22      29.73F
THIEF RVR FALL MOSUNNY   88  39  18 W15G29    29.79F
CROOKSTON      SUNNY     90  39  17 W20       29.79F
FOSSTON        SUNNY     82  39  21 W16G26    29.84F
DETROIT LAKES  SUNNY     81  43  26 SW10      29.89F
MOORHEAD       SUNNY     90  37  15 W15G23    29.84F
PARK RAPIDS    SUNNY     82  39  21 W17G25    29.88F
MAHNOMEN       FAIR      82  42  24 SW17G28   29.86F
$$
MNZ006-009>011-018-025>026-052000-
   North Central Minnesota

CITY           SKY/WX    TMP DP  RH WIND       PRES   REMARKS
BAUDETTE       SUNNY     85  44  23 SW20G28   29.74F
FLAG ISLAND    SUNNY     64  46  52 S10       29.70F
INTL FALLS     SUNNY     82  41  23 W14G25    29.76F
WASKISH        SUNNY     79  46  31 SW14G21   29.80F
BIG FORK       SUNNY     81  37  21 SW12G18   29.82F
LONGVILLE      SUNNY     81  37  21 SW12G17   29.88F
GRAND RAPIDS   SUNNY     75  37  25 SW12G20   29.88F
CRANE LAKE     SUNNY     75  36  23 SW8G17    29.80F
ORR            SUNNY     79  30  17 SW8G16    29.78F
COOK           MOSUNNY   75  39  27 SW14G23   29.83F
WALKER         FAIR      79  40  25 W13G18    29.86F
$$
MNZ012-019>021-037-052000-
   Northeast Minnesota

CITY           SKY/WX    TMP DP  RH WIND       PRES   REMARKS
DULUTH         MOSUNNY   69  36  29 SW13      29.90F
ELY            SUNNY     70  36  28 SW14      29.84F
HIBBING          N/A     75  36  24 SW10      29.85F
EVELETH        SUNNY     72  34  25 S15       29.87F
DULUTH HARBOR  SUNNY     70  37  30 SW16      29.90F
TWO HARBORS    SUNNY     70  45  40 S15       29.88F
SILVER BAY     SUNNY     70  39  32 S10G17    29.86F
GRAND MARAIS     N/A     41  35  79 SW7       29.91F
G MARAIS ARPRT SUNNY     57  28  33 S10G17    29.89F
$$
MNZ029>031-032-039>041-046>048-054>057-064-052000-
   West Central Minnesota

CITY           SKY/WX    TMP DP  RH WIND       PRES   REMARKS
FERGUS FALLS   SUNNY     84  45  24 W13G21    29.85F
WHEATON        SUNNY     86  46  25 SW13      29.91F
MORRIS         SUNNY     82  43  24 SW12G22   29.91F
ALEXANDRIA     SUNNY     78  39  24 SW15G22   29.95F
ELBOW LAKE     FAIR      82  44  26 W13G21    29.91F
WADENA         SUNNY     79  43  27 SW14G22   29.91F
GLENWOOD       SUNNY     79  37  22 S13G20    29.96F
APPLETON       SUNNY     82  37  20 SW12      29.92F
BENSON         SUNNY     81  34  18 SW12G21   29.94F
ORTONVILLE     SUNNY     81  39  22 SW9       29.92F
MADISON        SUNNY     81  39  22 SW10G16   29.94F
WILLMAR        FAIR      79  37  22 SW12G18   29.98S
$$
MNZ033>034-036-042>043-049>051-058-059-052000-
   Central Minnesota

CITY           SKY/WX    TMP DP  RH WIND       PRES   REMARKS
ST CLOUD       SUNNY     75  32  20 S13       29.96F
SAUK CENTRE    FAIR      78  38  24 SW15G22   29.95F
PAYNESVILLE    SUNNY     77  32  19 SW15G21   29.98F
AITKIN         SUNNY     79  25  13 SW13G22   29.89F
PINE RIVER     SUNNY     79  45  29 SW12G21   29.92F
BRAINERD       SUNNY     77  35  21 SW16      29.91F
STAPLES        SUNNY     79  36  21 SW13G18   29.91F
LONG PRAIRIE   FAIR      75  37  25 S10G18    29.95F
LITTLE FALLS   SUNNY     75  32  20 S13G20    29.94F
LITCHFIELD     SUNNY     77  34  20 SW5       29.98F
BUFFALO        SUNNY     71  32  24 SW8       29.99F
MAPLE LAKE     SUNNY     75  36  24 SW8       29.99F
HUTCHINSON     SUNNY     75  36  23 SW9       30.00F
$$
MNZ037-044-045-052-053-052000-
   East Central Minnesota

CITY           SKY/WX    TMP DP  RH WIND       PRES   REMARKS
PRINCETON      SUNNY     75  34  22 S12       29.96F
MORA           SUNNY     70  34  26 W9G16     29.97F
CAMBRIDGE      SUNNY     73  46  38 S9G16     29.95F
RUSH CITY      SUNNY     68  36  30 SW9       29.96F
MOOSE LAKE     SUNNY     70  41  35 S12       29.89F
HINCKLEY       CLOUDY    68  41  37 S12       29.95F
CLOQUET        SUNNY     70  30  23 SW9G17    29.90F
MCGREGOR       SUNNY     72  36  26 SW14G22   29.91F
$$
MNZ071>073-080-081-089-090-097-098-052000-
   Southwest Minnesota

CITY           SKY/WX    TMP DP  RH WIND       PRES   REMARKS
MONTEVIDEO     SUNNY     81  41  24 SW10      29.96F
GRANITE FALLS  SUNNY     81  38  21 SW8G18    29.97F
CANBY          SUNNY     81  46  29 SW10G16   29.97F
MARSHALL       SUNNY     78  39  24 S8G18     29.97F
REDWOOD FALLS  SUNNY     77  35  21 SW12      29.97F
OLIVIA         SUNNY     73  36  25 S8        29.97F
PIPESTONE      MOSUNNY   75  37  25 SW9G20    30.01F
WINDOM         SUNNY     73  36  25 CALM      30.02F
WORTHINGTON    SUNNY     73  37  27 SW9       30.03F
JACKSON        SUNNY     72  30  21 SW7       30.03F
TRACY          SUNNY     76  40  26 SW12      29.99F
SLAYTON        SUNNY     73  35  25 S10       30.03F
$$
MNZ065>067-074>077-082>085-091>093-052000-
   South Central Minnesota

CITY           SKY/WX    TMP DP  RH WIND       PRES   REMARKS
MANKATO        MOSUNNY   70  30  23 CALM      30.02S
NEW ULM        SUNNY     73  32  21 SW7       30.00F
ST JAMES       SUNNY     70  30  23 SW10      30.01F
FAIRMONT       SUNNY     70  34  26 S12       30.02F
GLENCOE        SUNNY     74  37  26 CALM      29.99F
FARIBAULT      MOSUNNY   66  30  26 W2        30.03F
OWATONNA       SUNNY     68  25  19 W7        30.02F
WASECA         SUNNY     72  32  23 SW9       30.04S
ALBERT LEA     SUNNY     70  28  21 CALM      30.03S
$$
MNZ078>079-086>088-094>096-052000-
   Southeast Minnesota

CITY           SKY/WX    TMP DP  RH WIND       PRES   REMARKS
ROCHESTER      MOSUNNY   66  32  28 W7        30.04F
RED WING       SUNNY     66  32  28 CALM      30.00F
STANTON        CLOUDY    69  31  24 W12       30.00F
DODGE CENTER   SUNNY     70  32  24 W7        30.03F
WINONA         PTSUNNY   64  34  32 NE5       30.03F
AUSTIN         SUNNY     66  30  26 NW3       30.03F
PRESTON        PTSUNNY   61  31  32 NW5       30.05F
$$
ABBREVIATIONS USED IN REMARKS
   TC - TEMPERATURES IN CELSIUS
  WCI - WIND CHILL INDEX
   HX - HEAT INDEX
  VSB - VISIBILITY
$$




USA.gov is the U.S. government's official web portal to all federal, state and local government web resources and services.